Date String (YYYY-MM-DD hh:mm:ss) UTC,Instrument flags,Ambient pressure (hPa),Sample flow (lpm),Bypass flow (lpm),Sample temperature (°C),Ambient temperature (°C),ASC tube jacket temperature (°C),LED temperature (°C),Box temperature (°C),Sample RH (%),Span deviation,Mass concentration (μg/m³),Mass concentration (μg/m³),Mass concentration (μg/m³)
DateTimeUTC,F1_M11,P_M11,Q1_M11,Q2_M11,T1_M11,T2_M11,T3_M11,T4_M11,T5_M11,U1_M11,ZSPAN_M11,X0_M11,X2_M11,X1_M11
2022-11-26 21:00:00,,0819.6,5.02,0.00,28.6,27.5,00.0,37.4,30.4,09.5,0000.0,0008.15,0002.64,0002.24
2022-11-26 21:01:00,,0819.5,5.00,0.00,28.6,27.5,00.0,37.4,30.4,09.4,0000.0,0008.24,0002.59,0002.20
2022-11-26 21:02:00,,0819.6,4.99,0.00,28.6,27.5,00.0,37.4,30.4,09.3,0000.0,0008.60,0002.55,0002.19
2022-11-26 21:03:00,,0819.6,5.02,0.00,28.6,27.6,00.0,37.4,30.4,09.3,0000.0,0008.35,0002.56,0002.22
2022-11-26 21:04:00,,0819.6,4.98,0.00,28.7,27.6,00.0,37.5,30.5,09.3,0000.0,0008.30,0002.54,0002.22
2022-11-26 21:05:00,,0819.6,5.02,0.00,28.7,27.6,00.0,37.5,30.5,09.2,0000.0,0008.31,0002.59,0002.25
2022-11-26 21:06:00,,0819.6,4.98,0.00,28.7,27.7,00.0,37.5,30.5,09.1,0000.0,0007.88,0002.59,0002.28
2022-11-26 21:07:00,,0819.6,5.01,0.00,28.7,27.7,00.0,37.5,30.5,09.2,0000.0,0007.63,0002.64,0002.33
2022-11-26 21:08:00,,0819.5,4.99,0.00,28.8,27.7,00.0,37.5,30.6,09.1,0000.0,0007.46,0002.70,0002.39
2022-11-26 21:09:00,,0819.5,5.01,0.00,28.8,27.7,00.0,37.5,30.6,09.2,0000.0,0006.26,0002.77,0002.45
2022-11-26 21:10:00,,0819.6,5.00,0.00,28.8,27.8,00.0,37.6,30.6,09.1,0000.0,0006.00,0002.86,0002.53
2022-11-26 21:11:00,,0819.6,4.99,0.00,28.8,27.8,00.0,37.6,30.6,09.0,0000.0,0006.13,0002.96,0002.61
2022-11-26 21:12:00,,0819.6,5.01,0.00,28.8,27.8,00.0,37.6,30.6,09.0,0000.0,0006.96,0003.08,0002.70
2022-11-26 21:13:00,,0819.5,4.98,0.00,28.8,27.8,00.0,37.6,30.6,09.1,0000.0,0006.72,0003.11,0002.74
2022-11-26 21:14:00,,0819.6,5.02,0.00,28.9,27.8,00.0,37.6,30.7,09.1,0000.0,0007.43,0003.12,0002.74
2022-11-26 21:15:00,,0819.5,4.99,0.00,28.9,27.9,00.0,37.7,30.7,09.1,0000.0,0007.50,0003.13,0002.77
2022-11-26 21:16:00,,0819.5,5.02,0.00,28.9,27.9,00.0,37.7,30.7,09.1,0000.0,0007.52,0003.13,0002.77
2022-11-26 21:17:00,,0819.5,4.98,0.00,28.9,27.9,00.0,37.7,30.7,09.1,0000.0,0007.54,0003.10,0002.74
2022-11-26 21:18:00,,0819.5,5.01,0.00,29.0,27.9,00.0,37.7,30.7,09.1,0000.0,0007.72,0003.11,0002.72
2022-11-26 21:19:00,,0819.6,4.99,0.00,29.0,27.9,00.0,37.7,30.8,09.2,0000.0,0007.78,0003.10,0002.68
2022-11-26 21:20:00,,0819.5,5.01,0.00,29.0,28.0,00.0,37.7,30.8,09.2,0000.0,0007.91,0003.13,0002.68
2022-11-26 21:21:00,,0819.5,5.00,0.00,29.0,28.0,00.0,37.8,30.8,09.3,0000.0,0007.98,0003.15,0002.68
2022-11-26 21:22:00,,0819.5,5.00,0.00,29.0,28.0,00.0,37.8,30.8,09.1,0000.0,0007.97,0003.17,0002.67
2022-11-26 21:23:00,,0819.6,4.98,0.00,29.0,28.0,00.0,37.8,30.8,09.0,0000.0,0007.62,0003.16,0002.66
2022-11-26 21:24:00,,0819.5,5.01,0.00,29.1,28.0,00.0,37.8,30.9,09.2,0000.0,0007.60,0003.18,0002.68
2022-11-26 21:25:00,,0819.5,5.00,0.00,29.1,28.1,00.0,37.8,30.9,09.0,0000.0,0007.39,0003.22,0002.71
2022-11-26 21:26:00,,0819.6,5.00,0.00,29.1,28.1,00.0,37.9,30.9,09.0,0000.0,0007.50,0003.25,0002.74
2022-11-26 21:27:00,,0819.5,4.99,0.00,29.1,28.1,00.0,37.9,31.0,09.0,0000.0,0008.36,0003.27,0002.76
2022-11-26 21:28:00,,0819.6,5.01,0.00,29.1,28.1,00.0,37.9,31.0,09.0,0000.0,0008.34,0003.28,0002.80
2022-11-26 21:29:00,,0819.5,4.99,0.00,29.2,28.1,00.0,37.9,31.0,09.0,0000.0,0008.13,0003.28,0002.83
2022-11-26 21:30:00,,0819.6,5.00,0.00,29.2,28.2,00.0,37.9,31.0,09.1,0000.0,0008.22,0003.29,0002.85
2022-11-26 21:31:00,,0819.6,5.01,0.00,29.2,28.2,00.0,38.0,31.0,09.0,0000.0,0008.69,0003.29,0002.87
2022-11-26 21:32:00,,0819.7,5.00,0.00,29.2,28.2,00.0,38.0,31.0,09.1,0000.0,0009.23,0003.28,0002.87
2022-11-26 21:33:00,,0819.6,4.99,0.00,29.2,28.2,00.0,38.0,31.1,09.2,0000.0,0009.27,0003.27,0002.88
2022-11-26 21:34:00,,0819.7,5.02,0.00,29.3,28.2,00.0,38.0,31.1,09.1,0000.0,0009.63,0003.26,0002.88
2022-11-26 21:35:00,,0819.7,4.98,0.00,29.3,28.2,00.0,38.0,31.1,09.2,0000.0,0009.33,0003.27,0002.89
2022-11-26 21:36:00,,0819.7,5.00,0.00,29.3,28.2,00.0,38.0,31.1,09.2,0000.0,0009.12,0003.27,0002.88
2022-11-26 21:37:00,,0819.7,5.00,0.00,29.3,28.2,00.0,38.1,31.1,09.2,0000.0,0009.06,0003.25,0002.86
2022-11-26 21:38:00,,0819.7,5.00,0.00,29.3,28.3,00.0,38.1,31.1,09.1,0000.0,0008.11,0003.23,0002.84
2022-11-26 21:39:00,,0819.8,4.99,0.00,29.3,28.3,00.0,38.1,31.1,09.1,0000.0,0008.09,0003.23,0002.83
2022-11-26 21:40:00,,0819.8,5.01,0.00,29.4,28.3,00.0,38.1,31.2,09.2,0000.0,0008.10,0003.23,0002.82
2022-11-26 21:41:00,,0819.8,4.99,0.00,29.4,28.3,00.0,38.1,31.2,09.2,0000.0,0008.13,0003.23,0002.81
2022-11-26 21:42:00,,0819.8,5.01,0.00,29.4,28.3,00.0,38.2,31.2,09.3,0000.0,0007.58,0003.22,0002.80
2022-11-26 21:43:00,,0819.8,4.99,0.00,29.4,28.3,00.0,38.2,31.2,09.2,0000.0,0007.03,0003.22,0002.80
2022-11-26 21:44:00,,0819.8,4.99,0.00,29.4,28.3,00.0,38.2,31.2,09.2,0000.0,0007.65,0003.20,0002.78
2022-11-26 21:45:00,,0819.8,5.01,0.00,29.4,28.3,00.0,38.2,31.2,09.0,0000.0,0007.01,0003.20,0002.78
2022-11-26 21:46:00,,0819.8,5.00,0.00,29.4,28.3,00.0,38.2,31.2,08.9,0000.0,0006.87,0003.20,0002.79
2022-11-26 21:47:00,,0819.8,4.98,0.00,29.4,28.3,00.0,38.2,31.2,08.9,0000.0,0007.08,0003.19,0002.82
2022-11-26 21:48:00,,0819.9,5.02,0.00,29.4,28.3,00.0,38.2,31.2,08.9,0000.0,0007.51,0003.22,0002.85
2022-11-26 21:49:00,,0819.9,5.00,0.00,29.4,28.3,00.0,38.2,31.2,08.9,0000.0,0008.13,0003.26,0002.90
2022-11-26 21:50:00,,0819.9,4.98,0.00,29.4,28.3,00.0,38.2,31.2,08.9,0000.0,0008.39,0003.30,0002.94
2022-11-26 21:51:00,,0819.9,5.02,0.00,29.4,28.4,00.0,38.2,31.2,08.9,0000.0,0008.45,0003.32,0002.99
2022-11-26 21:52:00,,0819.9,4.98,0.00,29.5,28.4,00.0,38.3,31.2,09.0,0000.0,0008.40,0003.35,0003.03
2022-11-26 21:53:00,,0820.0,5.01,0.00,29.5,28.4,00.0,38.3,31.3,09.1,0000.0,0008.39,0003.37,0003.06
2022-11-26 21:54:00,,0820.0,5.00,0.00,29.5,28.4,00.0,38.3,31.3,09.0,0000.0,0008.33,0003.41,0003.09
2022-11-26 21:55:00,,0819.9,4.99,0.00,29.5,28.4,00.0,38.3,31.3,08.9,0000.0,0007.76,0003.46,0003.13
2022-11-26 21:56:00,,0819.9,5.01,0.00,29.5,28.4,00.0,38.3,31.4,09.0,0000.0,0007.85,0003.51,0003.16
2022-11-26 21:57:00,,0820.0,4.99,0.00,29.5,28.4,00.0,38.3,31.3,09.1,0000.0,0007.83,0003.52,0003.18
2022-11-26 21:58:00,,0820.0,5.01,0.00,29.5,28.4,00.0,38.3,31.3,09.1,0000.0,0007.73,0003.52,0003.18
2022-11-26 21:59:00,,0820.0,4.99,0.00,29.5,28.4,00.0,38.4,31.3,09.1,0000.0,0007.66,0003.54,0003.19
